FW8647 Weather Reports


time (UTC)temp
F
wind
direction
speed
knots
gust
knots
rain 1hr
in
rain 24hr
in
rain mn
in
humidity
%
barometer
mb
20260510143931 47 298 2.6 7.8 0.00 0.00 0.00 51 1019.6
20260510142930 47 356 3.5 6.1 0.00 0.00 0.00 53 1019.4
20260510141929 46 322 3.5 7.0 0.00 0.00 0.00 55 1019.3
20260510140923 45 343 4.3 5.2 0.00 0.00 0.00 56 1019.3
20260510135918 45 342 6.1 7.0 0.00 0.00 0.00 56 1018.9
20260510134918 44 310 5.2 7.0 0.00 0.00 0.00 57 1018.9
20260510133916 44 352 7.0 9.6 0.00 0.00 0.00 59 1019.0
20260510132914 44 333 4.3 7.0 0.00 0.00 0.00 63 1018.6
20260510131909 44 327 2.6 7.0 0.00 0.00 0.00 64 1018.8
20260510130908 44 288 6.1 11.3 0.00 0.00 0.00 65 1018.5
20260510125908 43 335 7.8 11.3 0.00 0.00 0.00 68 1018.4
20260510124908 43 270 3.5 7.0 0.00 0.00 0.00 68 1018.6
20260510123906 42 2 5.2 7.0 0.00 0.00 0.00 69 1018.3
20260510122904 42 336 4.3 6.1 0.00 0.00 0.00 71 1018.3
20260510121901 42 337 1.7 4.3 0.00 0.00 0.00 73 1018.1
20260510120902 41 275 2.6 4.3 0.00 0.00 0.00 74 1018.1
20260510115900 41 330 4.3 5.2 0.00 0.00 0.00 77 1018.2
20260510114859 40 328 2.6 4.3 0.00 0.00 0.00 79 1017.7
20260510113857 40 317 1.7 2.6 0.00 0.00 0.00 79 1017.7
20260510112855 39 315 0.9 1.7 0.00 0.00 0.00 79 1017.6
20260510111854 38 328 0.9 2.6 0.00 0.00 0.00 80 1017.5
20260510110852 38 258 2.6 2.6 0.00 0.00 0.00 80 1017.2
20260510105851 38 331 2.6 4.3 0.00 0.00 0.00 80 1017.1
20260510104847 38 317 0.9 2.6 0.00 0.00 0.00 80 1016.8
20260510103846 38 268 0.0 0.0 0.00 0.00 0.00 80 1016.6
20260510102844 38 291 1.7 1.7 0.00 0.00 0.00 79 1016.5
20260510101844 38 225 0.9 1.7 0.00 0.00 0.00 78 1016.3
20260510100844 38 204 0.9 1.7 0.00 0.00 0.00 78 1015.9
20260510095843 38 201 0.0 0.9 0.00 0.00 0.00 77 1015.9
20260510094838 39 202 1.7 2.6 0.00 0.00 0.00 77 1015.6
20260510093836 39 202 0.9 1.7 0.00 0.00 0.00 76 1015.6
20260510092834 39 201 1.7 1.7 0.00 0.00 0.00 76 1015.2
20260510091832 39 201 0.0 0.0 0.00 0.00 0.00 76 1015.1
20260510090831 39 203 0.0 0.0 0.00 0.00 0.00 75 1014.7
20260510085830 39 204 0.0 0.0 0.00 0.00 0.00 75 1014.6
20260510084826 39 205 0.0 0.0 0.00 0.00 0.00 75 1014.4
20260510083826 40 206 0.0 0.0 0.00 0.00 0.00 75 1014.4
20260510082824 40 214 0.0 0.0 0.00 0.00 0.00 76 1014.1
20260510081820 40 218 0.9 0.9 0.00 0.00 0.00 76 1014.3
20260510080818 40 220 0.0 0.9 0.00 0.00 0.00 76 1014.0
20260510075816 40 223 0.9 2.6 0.00 0.00 0.00 76 1014.2
20260510074816 40 224 0.0 0.0 0.00 0.00 0.00 76 1013.9
20260510073815 41 233 0.9 0.9 0.00 0.00 0.00 76 1013.7
20260510072813 41 255 1.7 1.7 0.00 0.00 0.00 77 1013.7
20260510071812 41 271 0.0 0.9 0.00 0.00 0.00 77 1013.8
20260510070808 41 286 0.0 0.9 0.00 0.00 0.00 76 1013.7
20260510065804 42 341 1.7 4.3 0.00 0.00 0.00 76 1013.6
20260510064804 42 319 0.9 1.7 0.00 0.00 0.00 76 1013.5
20260510063802 42 316 0.9 1.7 0.00 0.00 0.00 76 1013.6
20260510062802 0 0.0 0.0 0.00 0.00 0.00 1013.5
20260510061759 43 326 2.6 4.3 0.00 0.00 0.00 74 1013.5
20260510060757 44 326 3.5 5.2 0.00 0.00 0.00 73 1013.5
20260510055757 45 312 1.7 1.7 0.00 0.00 0.00 72 1013.3
20260510054755 45 305 0.0 0.0 0.00 0.00 0.00 72 1012.9
20260510053751 46 326 0.0 0.0 0.00 0.00 0.00 71 1012.9
20260510052750 46 322 0.0 0.0 0.00 0.00 0.00 72 1012.5
20260510051748 45 317 0.0 0.0 0.00 0.00 0.00 73 1012.6
20260510050747 46 309 0.0 0.0 0.00 0.00 0.00 72 1012.5
20260510045747 46 321 0.0 0.0 0.00 0.00 0.00 70 1012.5
20260510044747 46 264 0.0 0.0 0.00 0.00 0.00 70 1012.4
20260510043745 47 238 0.0 0.0 0.00 0.00 0.00 69 1012.3
20260510042746 47 343 0.0 0.0 0.00 0.00 0.00 68 1012.1
20260510041744 47 328 2.6 4.3 0.00 0.00 0.00 67 1011.9
20260510040745 48 350 0.9 2.6 0.00 0.00 0.00 67 1011.9
20260510035742 48 351 3.5 6.1 0.00 0.21 0.21 67 1012.2
20260510034740 48 6 0.9 2.6 0.00 0.21 0.21 66 1011.8
20260510033740 48 335 5.2 6.1 0.00 0.21 0.21 66 1012.1
20260510032740 49 290 0.0 0.0 0.00 0.21 0.21 68 1011.2
20260510031737 0 0.0 0.0 0.00 0.00 0.00 1011.2
20260510030733 0 0.0 0.0 0.00 0.00 0.00 1010.9
20260510025728 0 0.0 0.0 0.00 0.00 0.00 1010.9
20260510024728 0 0.0 0.0 0.00 0.00 0.00 1010.7
20260510023725 0 0.0 0.0 0.00 0.00 0.00 1010.6
20260510022725 0 0.0 0.0 0.00 0.00 0.00 1010.2
20260510021720 0 0.0 0.0 0.00 0.00 0.00 1010.2
20260510020719 53 290 1.7 2.6 0.00 0.21 0.21 86 1009.6
20260510015715 53 315 0.9 1.7 0.00 0.21 0.21 86 1009.6
20260510014713 0 0.0 0.0 0.00 0.00 0.00 1009.1
20260510013711 53 130 1.7 2.6 0.00 0.21 0.21 92 1009.1
20260510012707 0 0.0 0.0 0.00 0.00 0.00 1008.8
20260510011703 53 219 0.0 0.0 0.00 0.21 0.21 92 1008.8
20260510010701 0 0.0 0.0 0.00 0.00 0.00 1008.4
20260510005700 54 232 0.0 0.0 0.00 0.21 0.21 91 1008.2
20260510004655 54 211 0.0 0.0 0.00 0.21 0.21 90 1008.1
20260510003655 54 193 0.0 0.0 0.00 0.21 0.21 90 1007.9
20260510002651 54 202 0.0 0.0 0.00 0.21 0.21 90 1007.6
20260510001651 54 191 0.0 0.0 0.00 0.21 0.21 90 1007.5
20260510000650 54 189 0.0 0.0 0.00 0.21 0.21 90 1007.4
20260509235650 55 203 0.0 0.0 0.00 0.21 0.21 90 1007.2
20260509234648 55 190 0.9 0.9 0.00 0.21 0.21 89 1007.1
20260509233644 55 190 2.6 4.3 0.00 0.21 0.21 88 1006.8
20260509232642 55 184 4.3 7.8 0.00 0.21 0.21 89 1007.0
20260509231642 55 193 2.6 2.6 0.00 0.21 0.21 88 1006.6
20260509230642 55 221 1.7 1.7 0.00 0.21 0.21 86 1006.5
20260509225641 55 187 2.6 2.6 0.00 0.21 0.21 85 1006.2
20260509224638 55 176 2.6 4.3 0.00 0.21 0.21 85 1006.0
20260509223632 55 202 2.6 4.3 0.00 0.21 0.21 85 1006.0
20260509222632 55 172 2.6 2.6 0.00 0.21 0.21 85 1005.7
20260509221630 55 186 3.5 5.2 0.00 0.21 0.21 85 1005.7
20260509220627 53 185 3.5 4.3 0.00 0.21 0.21 87 1006.1
20260509215626 52 197 2.6 2.6 0.00 0.21 0.21 89 1006.1
20260509214626 51 185 3.5 5.2 0.00 0.21 0.21 90 1006.2
20260509213625 50 202 2.6 4.3 0.00 0.21 0.21 89 1006.2
20260509212625 50 216 2.6 6.1 0.00 0.21 0.21 91 1006.4
20260509211623 49 200 4.3 5.2 0.00 0.21 0.21 92 1006.5
20260509210622 49 200 7.0 12.2 0.05 0.21 0.21 92 1007.3
20260509205619 50 191 3.5 5.2 0.35 0.21 0.21 94 1006.5
20260509204617 55 192 8.7 13.0 0.31 0.15 0.15 92 1007.3
20260509203615 56 211 6.1 8.7 0.00 0.10 0.10 86 1005.9
20260509202614 57 193 6.1 7.8 0.00 0.10 0.10 85 1005.6
20260509201610 57 197 9.6 13.0 0.00 0.10 0.10 84 1005.7
20260509200608 56 171 8.7 13.0 0.00 0.10 0.10 85 1005.8
20260509195606 57 187 12.2 20.0 0.00 0.10 0.10 84 1005.8
20260509194606 57 174 5.2 11.3 0.00 0.10 0.10 83 1005.5
20260509193606 57 185 7.0 13.0 0.00 0.10 0.10 82 1005.6
20260509192605 58 196 7.8 13.0 0.00 0.10 0.10 81 1006.0
20260509191600 58 198 7.8 12.2 0.00 0.10 0.10 82 1005.9
20260509190559 57 135 5.2 12.2 0.00 0.10 0.10 84 1006.0
20260509185554 56 203 3.5 4.3 0.00 0.10 0.10 87 1006.3
20260509184549 55 184 4.3 6.1 0.00 0.10 0.10 89 1006.6
20260509183546 55 200 6.1 7.8 0.00 0.10 0.10 88 1007.0
20260509182544 55 168 5.2 7.8 0.00 0.10 0.10 89 1006.7
20260509181540 55 207 5.2 8.7 0.00 0.10 0.10 89 1006.7
20260509180538 56 180 10.4 18.2 0.00 0.10 0.10 87 1006.3
20260509175536 56 211 5.2 8.7 0.00 0.10 0.10 87 1006.5
20260509174536 57 210 7.8 11.3 0.00 0.10 0.10 84 1006.7
20260509173532 57 214 7.8 20.0 0.00 0.10 0.10 83 1006.4
20260509172531 58 209 7.8 11.3 0.00 0.10 0.10 83 1006.8
20260509171529 57 268 4.3 6.1 0.00 0.10 0.10 82 1007.0
20260509170527 55 202 1.7 4.3 0.00 0.10 0.10 86 1007.3
20260509165527 55 201 11.3 13.9 0.00 0.10 0.10 86 1007.6
20260509164525 55 207 9.6 17.4 0.00 0.10 0.10 85 1007.7
20260509163525 55 172 8.7 12.2 0.00 0.10 0.10 83 1007.6
20260509162524 55 208 8.7 13.9 0.00 0.10 0.10 86 1008.2
20260509161521 56 195 5.2 7.0 0.00 0.10 0.10 85 1008.1
20260509160517 56 212 3.5 5.2 0.00 0.10 0.10 84 1008.7
20260509155515 56 167 5.2 8.7 0.00 0.10 0.10 83 1008.3
20260509154514 55 199 11.3 17.4 0.00 0.10 0.10 84 1007.9
20260509153514 55 176 11.3 15.6 0.00 0.10 0.10 85 1008.3
20260509152512 54 192 11.3 13.9 0.00 0.10 0.10 89 1008.7
20260509151511 54 186 5.2 8.7 0.00 0.10 0.10 90 1008.6
20260509150506 54 200 4.3 7.0 0.00 0.10 0.10 89 1008.6
20260509145506 54 200 5.2 8.7 0.00 0.10 0.10 91 1008.7
20260509144504 54 183 17.4 20.0 0.00 0.10 0.10 88 1008.7